TimeMST,TemperatureF,Dew PointF,Humidity,Sea Level PressureIn,VisibilityMPH,Wind Direction,Wind SpeedMPH,Gust SpeedMPH,PrecipitationIn,Events,Conditions,WindDirDegrees,DateUTC
12:15 AM,24.8,19.4,80,30.39,10.0,SE,4.6,-,N/A,,Scattered Clouds,130,2012-11-13 07:15:00
12:35 AM,23.0,19.4,86,30.40,10.0,SSE,4.6,-,N/A,,Clear,150,2012-11-13 07:35:00
12:55 AM,21.2,19.4,93,30.39,10.0,SSE,5.8,-,N/A,,Clear,160,2012-11-13 07:55:00
1:15 AM,23.0,19.4,86,30.39,10.0,Calm,Calm,-,N/A,,Clear,0,2012-11-13 08:15:00
1:35 AM,23.0,19.4,86,30.38,10.0,Calm,Calm,-,N/A,,Clear,0,2012-11-13 08:35:00
1:55 AM,21.2,19.4,93,30.38,10.0,Calm,Calm,-,N/A,,Clear,0,2012-11-13 08:55:00
2:15 AM,21.2,19.4,93,30.38,10.0,NE,3.5,-,N/A,,Clear,50,2012-11-13 09:15:00
2:35 AM,21.2,21.2,100,30.39,10.0,NE,3.5,-,N/A,,Clear,50,2012-11-13 09:35:00
2:55 AM,21.2,21.2,100,30.40,10.0,NE,3.5,-,N/A,,Clear,50,2012-11-13 09:55:00
3:15 AM,21.2,19.4,93,30.40,10.0,East,3.5,-,N/A,,Clear,90,2012-11-13 10:15:00
3:35 AM,21.2,19.4,93,30.40,10.0,SE,4.6,-,N/A,,Clear,140,2012-11-13 10:35:00
3:55 AM,19.4,17.6,93,30.39,10.0,SE,4.6,-,N/A,,Clear,130,2012-11-13 10:55:00
4:15 AM,19.4,17.6,93,30.40,10.0,ESE,3.5,-,N/A,,Clear,110,2012-11-13 11:15:00
4:35 AM,19.4,17.6,93,30.40,10.0,Calm,Calm,-,N/A,,Clear,0,2012-11-13 11:35:00
5:15 AM,19.4,17.6,93,30.41,10.0,Calm,Calm,-,N/A,,Clear,0,2012-11-13 12:15:00
5:35 AM,21.2,19.4,93,30.41,10.0,SSE,4.6,-,N/A,,Clear,160,2012-11-13 12:35:00
5:55 AM,17.6,14.0,86,30.40,10.0,East,3.5,-,N/A,,Clear,90,2012-11-13 12:55:00
6:15 AM,21.2,21.2,100,30.40,10.0,Calm,Calm,-,N/A,,Clear,0,2012-11-13 13:15:00
6:35 AM,21.2,19.4,93,30.40,9.0,ESE,3.5,-,N/A,,Clear,110,2012-11-13 13:35:00
6:50 AM,19.4,19.4,100,30.40,15.0,Calm,Calm,-,N/A,,Partly Cloudy,0,2012-11-13 13:50:00
7:55 AM,19.4,15.8,86,30.41,15.0,East,3.5,-,N/A,,Partly Cloudy,80,2012-11-13 14:55:00
8:56 AM,24.8,23.0,93,30.41,15.0,Calm,Calm,-,N/A,,Clear,0,2012-11-13 15:56:00
9:47 AM,28.4,21.2,74,30.41,15.0,SE,3.5,-,N/A,,Partly Cloudy,130,2012-11-13 16:47:00
10:48 AM,30.2,23.0,75,30.41,15.0,SSE,3.5,-,N/A,,Partly Cloudy,160,2012-11-13 17:48:00
11:47 AM,32.0,23.0,69,30.39,15.0,SSE,4.6,-,N/A,,Partly Cloudy,150,2012-11-13 18:47:00
12:50 PM,33.8,24.8,70,30.35,15.0,Variable,5.8,-,N/A,,Partly Cloudy,0,2012-11-13 19:50:00
3:50 PM,35.6,24.8,65,30.32,15.0,Variable,4.6,-,N/A,,Scattered Clouds,0,2012-11-13 22:50:00
4:54 PM,33.8,23.0,65,30.31,15.0,Variable,4.6,-,N/A,,Scattered Clouds,0,2012-11-13 23:54:00
6:54 PM,28.4,23.0,80,30.21,15.0,Variable,4.6,-,N/A,,Scattered Clouds,0,2012-11-14 01:54:00
7:54 PM,28.4,24.8,86,30.30,15.0,Calm,Calm,-,N/A,,Scattered Clouds,0,2012-11-14 02:54:00
8:55 PM,28.4,24.8,86,30.30,15.0,Calm,Calm,-,N/A,,Scattered Clouds,0,2012-11-14 03:55:00
9:15 PM,26.6,24.8,93,30.31,10.0,Calm,Calm,-,N/A,,Clear,0,2012-11-14 04:15:00
9:35 PM,26.6,23.0,86,30.30,10.0,ESE,3.5,-,N/A,,Clear,120,2012-11-14 04:35:00
9:55 PM,24.8,19.4,80,30.30,10.0,SSE,5.8,-,N/A,,Clear,160,2012-11-14 04:55:00
10:15 PM,26.6,21.2,80,30.30,10.0,SE,3.5,-,N/A,,Clear,130,2012-11-14 05:15:00
10:35 PM,24.8,23.0,93,30.30,7.0,ESE,3.5,-,N/A,,Clear,120,2012-11-14 05:35:00
10:55 PM,26.6,24.8,93,30.30,10.0,Calm,Calm,-,N/A,,Clear,0,2012-11-14 05:55:00
11:15 PM,26.6,24.8,93,30.30,6.0,East,4.6,-,N/A,,Clear,80,2012-11-14 06:15:00
11:35 PM,26.6,24.8,93,30.29,10.0,Calm,Calm,-,N/A,,Clear,0,2012-11-14 06:35:00
11:55 PM,26.6,21.2,80,30.29,10.0,Calm,Calm,-,N/A,,Clear,0,2012-11-14 06:55:00